Home   Weather   Stockerau   Past weeks

Flag for Austria Past Weather in Stockerau, Lower Austria, Austria — Yesterday and Last 2 Weeks

Now
54 °F

Partly cloudy.


Feels Like: 53 °F
Forecast: 40 / 49 °F
Wind: 5 mph from North

Location: Tulln Airport

Current Time: Apr 26, 2017 at 2:12:56 am

Latest Report: Apr 25, 2017 at 10:50 pm


Visibility: 15 mi

Pressure: 29.74 "Hg

Humidity: 77%

Dew Point: 46 °F

Location of StockerauLocation

Past Weather in Stockerau — Graph

°F

Stockerau Temperature Yesterday

Maximum temperature yesterday: 72 °F (at 1:50 pm)
Minimum temperature yesterday: 36 °F (at 5:50 am)
Average temperature yesterday: 60 °F

High & Low Weather Summary for the Past Weeks

 TemperatureHumidityPressure
High72 °F (Apr 25, 1:50 pm)100% (Apr 19, 3:20 pm)30.45 "Hg (Apr 19, 3:20 pm)
Low34 °F (Apr 19, 6:50 am)31% (Apr 23, 4:50 pm)29.65 "Hg (Apr 25, 5:50 pm)
Average50 °F65%30.04 "Hg
* Reported Apr 10 10:50 pm — Apr 25 10:50 pm, Stockerau, Weather by CustomWeather, © 2017

Note: Actual official high and low records may vary slightly from our data, if they occured in-between our weather recording intervals... More about our weather records

Advertising

Stockerau Weather History for the Previous 24 Hours

Scroll right to see more
 ConditionsComfort  
Time TempWeatherWind HumidityBarometerVisibility
10:50 pm
Tue, Apr 25
54 °FPartly cloudy.5 mph77%29.74 "Hg16 mi
10:20 pm57 °FPartly cloudy.7 mph67%29.74 "Hg16 mi
9:50 pm57 °FPartly cloudy.5 mph67%29.74 "Hg19 mi
8:50 pm59 °FPassing clouds.2 mph63%29.68 "Hg19 mi
8:20 pm59 °FPassing clouds.3 mph59%29.68 "Hg22 mi
7:50 pm61 °FPartly sunny.5 mph59%29.65 "Hg25 mi
7:20 pm63 °FPartly sunny.6 mph59%29.65 "Hg25 mi
6:50 pm64 °FPartly sunny.8 mph52%29.65 "Hg25 mi
5:50 pm66 °FPartly sunny.9 mph49%29.65 "Hg25 mi
5:20 pm68 °FPartly sunny.10 mph49%29.68 "Hg19 mi
4:50 pm70 °FPartly sunny.7 mph40%29.68 "Hg25 mi
4:20 pm72 °FPartly sunny.6 mph44%29.68 "Hg31 mi
3:50 pm72 °FBroken clouds.5 mph41%29.71 "Hg31 mi
3:20 pm70 °FBroken clouds.7 mph43%29.71 "Hg31 mi
2:50 pm72 °FPartly sunny.8 mph41%29.71 "Hg31 mi
2:20 pm72 °FPartly sunny.7 mph44%29.74 "Hg31 mi
1:50 pm72 °FScattered clouds.2 mph47%29.74 "Hg31 mi
1:20 pm68 °FScattered clouds.2 mph49%29.74 "Hg31 mi
12:50 pm68 °FPartly sunny.3 mph46%29.74 "Hg31 mi
12:20 pm66 °FPartly sunny.5 mph52%29.74 "Hg31 mi
11:50 am64 °FPartly sunny.5 mph56%29.74 "Hg31 mi
11:20 am63 °FPartly sunny.3 mph59%29.77 "Hg31 mi
10:50 am61 °FPartly sunny.3 mph59%29.77 "Hg37 mi
10:20 am59 °FPartly sunny.2 mph68%29.77 "Hg37 mi
9:50 am57 °FPartly sunny.2 mph63%29.77 "Hg37 mi
9:20 am52 °FPartly sunny.2 mph72%29.77 "Hg37 mi
8:50 am50 °FPartly sunny.2 mph71%29.77 "Hg37 mi
8:20 am46 °FPartly sunny.2 mph82%29.77 "Hg37 mi
7:50 am45 °FPartly sunny.3 mph87%29.77 "Hg37 mi
7:20 am41 °FPartly sunny.2 mph93%29.77 "Hg37 mi
6:50 am39 °FPartly sunny.2 mph93%29.77 "Hg12 mi
5:50 am36 °FScattered clouds.2 mph93%29.77 "Hg9 mi
Weather by CustomWeather, © 2017

See weather overviewHow to use our weather pages